Regional Weather Roundup
Issued by NWS

Home | Current Version | Previous Version | Graphics & Text | Print | Product List | Glossary On
Versions: 1 2 3 4 5 6 7 8 9 10 11 12 13 14 15 16 17 18 19 20 21 22 23 24 25 26 27 28 29 30 31 32 33 34 35 36 37 38 39 40 41 42 43 44 45 46 47 48 49 50
000
ASUS43 KLMK 201810
RWRKY
KENTUCKY REGIONAL WEATHER ROUNDUP
NATIONAL WEATHER SERVICE LOUISVILLE KY
200 PM EDT FRI OCT 20 2017

NOTE "FAIR" INDICATES FEW OR NO CLOUDS BELOW 12,000 FEET
WITH NO SIGNIFICANT WEATHER AND/OR OBSTRUCTIONS TO VISIBILITY.

KYZ001>023-026-027-061>063-070>075-201900-
WESTERN AND SOUTH CENTRAL KENTUCKY

CITY           SKY/WX    TMP DP  RH WIND       PRES   REMARKS
PADUCAH        SUNNY     75  51  43 S7        30.20F
HENDERSON      SUNNY     76  52  43 S9        30.22F
OWENSBORO      SUNNY     76  52  43 SW5       30.23F
HOPKINSVILLE   SUNNY     73  50  44 SE7       30.23F
BOWLING GREEN  SUNNY     75  50  41 VRB5      30.25F
GLASGOW        SUNNY     76  48  36 S5        30.26F
$$

KYZ024-025-028>034-038-045-046-053-201900-
NORTH CENTRAL KENTUCKY

CITY           SKY/WX    TMP DP  RH WIND       PRES   REMARKS
LOUISVILLE/SDF MOSUNNY   75  51  43 S5        30.24F
LOUISVILLE/LOU SUNNY     74  54  49 S6        30.25F
FORT KNOX      SUNNY     74  50  41 CALM      30.23F
$$

KYZ035>037-039>044-047>052-055>060-089>105-201900-
NORTHEAST KENTUCKY

CITY           SKY/WX    TMP DP  RH WIND       PRES   REMARKS
LEXINGTON      SUNNY     73  50  44 S6        30.27F
COVINGTON      MOSUNNY   73  55  53 VRB6      30.25F
FRANKFORT      SUNNY     74  49  41 VRB3      30.25F
$$

KYZ054-064>069-076>088-106>120-201900-
SOUTHEAST KENTUCKY

CITY           SKY/WX    TMP DP  RH WIND       PRES   REMARKS
JACKSON        SUNNY     71  51  49 CALM      30.28F
LONDON         SUNNY     71  48  43 S5        30.28F
SOMERSET       SUNNY     72  48  43 CALM      30.28F
MIDDLESBORO    SUNNY     71  51  47 CALM      30.28F
MONTICELLO     CLEAR     73  51  46 VRB7      30.28F
$$





USA.gov is the U.S. government's official web portal to all federal, state and local government web resources and services.